Temp
77 77 75 73 72 73 72 72 72 72 72 72 73 73 72 71 70 69 66 65 64 61 59 59 58 57 56 55 54 53 52 51 49 50 49 52 53 54 55 55 57 56 55
77 76 75 73 73 73 73 73 71 71 72 72 73 73 72 72 70 69 67 67 64 62 60 58 57 60 55 53 52 52 50 48 48 46 47 50 51 52 52 51 56 60 54
76 76 75 73 72 75 76 75 70 70 71 72 73 72 72 71 70 69 68 67 65 64 61 59 57 56 54 51 51 50 48 50 47 46 47 47 48 49 50 50 52 52 58
77 76 74 74 74 76 76 75 70 70 70 72 73 72 72 71 70 70 68 66 65 64 62 60 58 56 54 52 52 50 49 47 46 46 45 46 46 48 46 47 49 50 53
76 75 75 75 75 75 74 75 73 70 71 71 72 72 72 72 72 69 68 66 64 63 61 61 58 59 63 57 53 49 48 47 46 45 45 44 45 45 46 46 45 48 50
76 75 76 75 74 74 74 74 72 70 70 71 72 72 72 73 68 67 69 66 64 62 60 59 58 65 63 63 63 61 54 48 47 46 45 45 46 45 45 45 45 45 45
76 76 75 75 74 74 74 74 72 71 70 71 72 72 72 72 66 65 67 67 65 63 60 58 59 63 60 57 62 63 61 62 59 50 47 46 46 47 46 45 44 45 45
76 76 76 75 74 75 73 73 73 72 71 71 72 72 73 71 64 62 65 67 65 61 61 60 58 57 56 55 52 51 51 51 52 54 50 49 49 49 48 48 46 46 47
76 76 76 76 75 74 73 73 74 72 72 71 72 72 72 72 61 61 63 66 64 61 61 60 58 57 58 58 52 50 49 50 57 59 58 58 58 58 56 47 47 44 46
77 77 77 76 76 74 74 74 75 74 74 72 72 73 70 72 59 59 63 68 65 61 60 59 61 58 56 57 52 49 48 50 48 49 50 52 54 53 59 51 48 46 44
79 78 77 77 76 76 76 76 75 73 74 71 71 72 72 70 64 57 58 68 67 63 60 57 56 56 54 53 53 49 50 50 51 47 48 49 51 51 51 49 48 47 45
78 77 76 76 77 77 76 75 74 73 72 71 71 72 73 70 60 56 56 61 64 65 59 58 57 54 52 52 51 52 51 53 46 47 47 48 49 50 51 51 49 49 48
76 76 76 76 77 78 74 74 72 73 73 72 72 72 73 65 62 56 54 57 59 66 63 59 56 51 51 51 52 52 52 47 46 46 47 47 48 49 48 49 50 49 49
74 75 75 75 75 76 77 76 75 75 74 74 72 72 73 64 64 58 58 59 58 62 60 58 56 56 54 54 52 51 48 47 47 47 47 47 47 48 48 46 46 46 47
76 76 75 75 73 76 76 77 76 79 76 76 76 76 74 64 65 61 59 59 62 63 56 55 49 49 48 49 49 49 47 47 47 46 47 47 47 47 47 45 44 43 45
76 77 77 77 77 75 76 75 55 56 56 56 57 70 74 62 53 51 50 49 51 49 55 53 51 49 52 50 50 51 48 51 47 47 46 46 47 47 45 45 44 43 45
77 78 78 73 78 76 74 76 73 59 49 51 49 52 55 57 51 49 47 47 47 51 63 54 53 51 55 51 50 50 50 49 48 48 47 47 47 47 46 45 44 43 43
76 66 77 77 78 77 76 75 76 75 70 67 51 52 51 52 49 46 44 48 49 52 63 54 56 55 52 51 51 50 50 48 48 47 47 48 47 46 46 44 43 43 42
72 75 74 76 75 75 77 75 75 73 70 67 59 53 45 42 42 42 47 59 55 54 60 57 56 53 53 54 53 50 50 49 49 47 47 47 47 46 45 44 44 46 46
72 67 67 73 72 71 72 72 72 71 70 64 66 67 51 52 51 49 53 60 56 56 59 56 56 56 55 55 53 51 49 49 47 47 47 47 47 45 46 44 44 44 44
70 71 67 72 72 72 72 72 72 70 69 65 67 63 52 62 60 55 52 56 57 57 56 56 54 55 56 52 52 51 51 51 49 48 48 47 47 46 45 44 45 45 44
68 71 72 71 71 71 71 72 71 70 69 67 65 54 46 63 62 58 56 57 58 58 56 57 59 56 57 54 53 54 54 52 50 48 47 48 47 47 45 45 45 45 43
66 66 69 72 72 67 70 72 69 70 69 67 61 56 54 60 60 59 57 59 55 54 56 58 58 55 57 56 56 57 56 53 52 51 49 47 47 47 46 45 45 45 42
63 65 65 66 69 71 71 71 68 62 66 63 61 59 58 60 61 60 60 61 56 56 57 57 58 60 58 56 54 56 55 53 53 53 51 49 48 46 48 45 46 45 43
58 58 59 61 64 67 69 68 68 67 65 64 63 61 60 60 60 59 57 58 57 57 57 58 59 60 59 57 55 55 48 40 51 46 50 50 49 49 49 47 46 45 44
55 55 56 57 58 60 65 67 67 66 65 63 62 59 58 57 58 55 56 57 59 59 60 60 61 59 58 58 57 48 39 38 44 42 50 51 49 48 48 46 47 45 44
MSLP
1011.97 1012.57 1013.22 1013.73 1014.07 1014.36 1014.69 1014.82 1015.17 1015.56 1015.86 1016.04 1016.19 1016.47 1016.68 1016.93 1017.19 1017.61 1017.98 1018.21 1018.59 1018.97 1019.32 1019.57 1019.65 1019.80 1020.13 1020.30 1020.28 1020.32 1020.67 1021.06 1021.35 1020.85 1020.50 1019.77 1019.50 1019.19 1018.83 1018.58 1018.17 1017.73 1017.37
1011.12 1011.88 1012.50 1013.15 1013.60 1013.92 1014.13 1014.30 1014.65 1015.01 1015.31 1015.58 1015.86 1016.11 1016.39 1016.67 1016.99 1017.19 1017.56 1017.80 1018.27 1018.81 1019.18 1019.58 1019.78 1019.92 1020.28 1020.42 1020.44 1020.56 1020.75 1020.82 1021.18 1021.49 1020.95 1020.28 1019.77 1019.42 1019.20 1018.85 1018.15 1017.69 1017.55
1010.46 1011.19 1011.88 1012.56 1012.99 1013.14 1013.32 1013.68 1014.10 1014.49 1014.81 1015.14 1015.48 1015.67 1015.96 1016.24 1016.56 1016.71 1016.94 1017.41 1017.85 1018.24 1018.78 1019.20 1019.44 1019.69 1020.05 1020.28 1020.40 1020.59 1020.59 1020.69 1021.06 1021.25 1021.12 1020.70 1020.12 1019.68 1019.24 1018.82 1018.29 1017.80 1017.15
1009.73 1010.45 1011.08 1011.68 1012.03 1012.30 1012.68 1013.07 1013.48 1013.92 1014.34 1014.58 1014.81 1015.02 1015.34 1015.69 1015.98 1016.30 1016.67 1016.99 1017.25 1017.57 1018.01 1018.43 1018.65 1018.96 1019.06 1019.27 1019.65 1019.99 1020.32 1020.55 1020.77 1020.80 1020.98 1020.94 1020.62 1019.84 1019.60 1019.46 1018.74 1018.02 1017.35
1008.98 1009.67 1010.14 1010.72 1011.21 1011.69 1012.12 1012.38 1012.80 1013.21 1013.63 1013.92 1014.18 1014.38 1014.66 1015.01 1015.40 1015.81 1016.06 1016.50 1016.83 1017.25 1017.71 1018.08 1018.60 1018.90 1018.97 1018.99 1019.30 1019.69 1019.90 1020.32 1020.21 1020.56 1020.77 1020.76 1020.46 1020.04 1019.90 1019.59 1019.21 1018.29 1017.11
1007.99 1008.65 1009.32 1010.10 1010.59 1010.99 1011.38 1011.77 1012.22 1012.52 1012.87 1013.24 1013.54 1013.66 1013.98 1014.18 1014.55 1014.88 1015.44 1016.03 1016.41 1016.99 1017.39 1017.94 1018.20 1018.56 1018.72 1018.72 1018.90 1018.99 1019.24 1019.62 1019.67 1020.02 1020.26 1020.25 1020.08 1019.84 1019.78 1019.61 1019.05 1018.92 1018.59
1006.88 1007.66 1008.48 1009.24 1009.79 1010.17 1010.62 1011.17 1011.41 1011.80 1012.25 1012.46 1012.71 1012.91 1013.09 1013.35 1013.74 1014.34 1014.92 1015.40 1015.88 1016.23 1016.85 1017.35 1018.15 1018.23 1018.34 1018.58 1018.62 1018.76 1018.97 1019.02 1019.12 1019.27 1019.50 1019.60 1019.51 1019.24 1019.17 1019.12 1019.17 1019.04 1018.66
1005.97 1006.79 1007.61 1008.34 1008.90 1009.40 1009.91 1010.24 1010.55 1011.08 1011.36 1011.68 1011.86 1012.09 1012.36 1012.55 1013.15 1013.78 1014.20 1014.58 1015.19 1015.66 1016.21 1016.83 1017.20 1017.57 1017.89 1018.19 1018.75 1018.93 1018.68 1018.69 1018.64 1018.58 1018.39 1018.19 1018.30 1018.27 1018.62 1018.71 1018.80 1018.52 1017.97
1005.18 1005.80 1006.54 1007.29 1007.99 1008.58 1008.99 1009.32 1009.63 1010.26 1010.52 1010.62 1010.84 1011.29 1011.58 1011.91 1012.54 1012.83 1013.49 1014.20 1014.92 1015.36 1015.92 1016.01 1016.46 1017.09 1017.72 1018.46 1018.64 1018.93 1018.77 1018.38 1017.68 1017.66 1017.69 1017.70 1017.52 1017.30 1017.42 1018.16 1018.26 1018.51 1018.00
1004.28 1004.81 1005.56 1006.26 1006.90 1007.48 1007.85 1008.30 1008.66 1009.18 1009.53 1009.86 1010.09 1010.24 1010.56 1011.03 1011.63 1011.96 1012.77 1013.60 1014.33 1014.93 1015.12 1015.47 1016.01 1016.38 1017.33 1017.71 1018.42 1018.96 1018.92 1018.19 1017.97 1017.80 1017.70 1017.55 1017.41 1017.34 1016.86 1017.17 1017.53 1017.91 1017.89
1002.99 1003.80 1004.53 1005.13 1005.67 1006.20 1006.77 1007.33 1007.91 1008.40 1008.85 1009.12 1009.28 1009.45 1009.78 1010.11 1010.71 1011.24 1012.00 1012.52 1013.04 1013.90 1014.60 1015.24 1015.86 1016.36 1016.40 1016.68 1017.11 1017.88 1018.00 1018.02 1018.08 1018.08 1017.75 1017.51 1017.26 1017.08 1016.90 1016.81 1016.90 1017.25 1017.12
1002.40 1003.01 1003.66 1004.27 1004.81 1005.39 1006.00 1006.49 1007.04 1007.61 1008.03 1008.29 1008.61 1008.72 1008.94 1009.45 1009.96 1010.66 1011.30 1011.49 1012.07 1012.85 1013.62 1014.18 1014.59 1015.34 1015.76 1016.39 1016.73 1017.14 1017.34 1017.77 1017.99 1018.12 1018.02 1017.72 1017.51 1017.16 1016.85 1016.49 1016.34 1016.30 1016.51
1001.71 1002.10 1002.65 1003.38 1004.05 1004.65 1005.24 1005.76 1006.42 1006.83 1007.07 1007.32 1007.57 1007.74 1008.11 1008.96 1009.80 1010.32 1010.89 1011.27 1011.54 1012.06 1012.52 1012.82 1013.52 1013.98 1014.58 1015.09 1015.68 1015.86 1016.65 1017.34 1017.82 1017.95 1017.96 1017.76 1017.36 1016.99 1016.56 1016.35 1015.95 1015.89 1015.83
1001.20 1001.74 1002.35 1002.86 1003.37 1003.94 1004.37 1004.82 1005.28 1005.58 1005.90 1006.21 1006.54 1006.85 1007.44 1008.39 1009.13 1010.06 1010.55 1011.14 1011.41 1011.78 1012.10 1012.49 1013.10 1013.93 1014.22 1015.04 1014.98 1015.24 1015.96 1016.69 1017.43 1017.51 1017.39 1017.26 1017.06 1016.91 1016.99 1016.94 1016.76 1016.53 1016.51
1000.41 1001.06 1001.47 1001.95 1002.59 1003.08 1003.42 1003.62 1003.94 1003.84 1004.20 1004.67 1004.96 1005.52 1006.11 1007.21 1007.57 1007.72 1008.74 1009.50 1009.90 1010.64 1012.23 1012.95 1013.46 1013.82 1014.93 1015.64 1016.02 1015.80 1015.74 1016.34 1016.76 1017.00 1016.95 1016.95 1017.01 1017.00 1016.86 1016.73 1016.98 1017.21 1017.06
999.93 1000.30 1000.51 1001.01 1001.65 1002.22 1002.51 1002.97 1003.33 1003.38 1003.41 1003.58 1003.91 1004.25 1004.60 1005.08 1006.11 1006.84 1007.10 1007.94 1008.41 1009.00 1010.17 1011.99 1013.44 1014.37 1014.12 1014.75 1015.09 1015.24 1015.76 1015.77 1016.12 1016.53 1016.60 1016.88 1016.85 1016.69 1016.87 1016.98 1017.04 1016.96 1016.96
999.06 999.47 999.96 1000.41 1000.68 1001.07 1001.61 1002.06 1002.60 1003.42 1003.43 1003.49 1003.77 1003.71 1003.85 1004.71 1005.39 1005.81 1007.38 1007.54 1008.45 1009.32 1009.16 1009.12 1010.49 1012.41 1013.36 1014.19 1015.07 1015.27 1015.50 1015.75 1015.79 1016.00 1016.27 1016.46 1016.45 1016.71 1016.86 1016.89 1016.89 1016.76 1016.60
998.83 998.90 999.27 999.53 999.88 1000.20 1000.58 1000.96 1001.41 1002.19 1002.86 1003.35 1003.56 1003.77 1003.67 1003.91 1004.52 1005.54 1007.05 1008.30 1009.51 1009.79 1009.87 1010.42 1010.34 1011.00 1011.83 1011.22 1012.06 1014.11 1014.61 1015.63 1016.04 1016.08 1016.25 1016.03 1016.26 1016.61 1016.66 1016.73 1016.66 1016.69 1016.76
999.20 998.87 999.00 999.14 999.30 999.46 999.79 1000.10 1000.43 1000.94 1001.64 1002.36 1003.37 1003.82 1004.40 1004.92 1005.50 1006.25 1006.52 1007.02 1007.89 1008.49 1008.67 1009.30 1009.90 1010.70 1011.15 1011.54 1012.36 1013.08 1013.40 1014.22 1015.07 1015.62 1015.80 1015.77 1015.88 1016.28 1016.46 1016.44 1016.45 1016.32 1016.45
999.35 998.91 998.75 998.88 998.96 999.23 999.47 999.75 1000.03 1000.39 1001.06 1001.76 1002.43 1002.85 1004.03 1004.85 1005.79 1006.26 1006.37 1006.41 1006.99 1007.41 1007.83 1008.48 1009.11 1010.05 1010.67 1010.95 1011.30 1012.22 1013.26 1013.87 1014.42 1014.96 1015.23 1015.49 1015.70 1015.97 1016.15 1016.22 1016.22 1016.51 1016.60
1000.21 999.02 998.66 998.66 998.88 998.78 998.91 999.31 999.49 1000.00 1000.44 1001.00 1001.31 1001.77 1002.07 1002.91 1003.66 1004.45 1005.16 1005.50 1005.81 1006.34 1006.94 1007.39 1008.03 1009.08 1010.27 1011.19 1011.18 1011.15 1012.36 1013.28 1013.74 1014.34 1014.57 1014.82 1015.36 1015.76 1015.73 1015.90 1016.21 1016.36 1016.48
1000.21 999.48 998.86 998.57 998.47 998.52 998.52 998.67 999.07 999.35 999.80 1000.29 1000.73 1001.40 1002.08 1002.70 1003.04 1003.60 1004.27 1004.67 1004.96 1005.44 1005.99 1006.51 1006.96 1008.07 1008.92 1009.36 1011.07 1011.25 1011.09 1012.42 1012.76 1013.41 1013.74 1014.17 1014.78 1015.13 1015.56 1016.01 1016.22 1016.46 1016.58
1000.69 1000.39 999.79 999.10 998.56 998.36 998.13 998.27 998.64 998.83 999.28 999.74 1000.36 1001.28 1001.90 1002.04 1002.31 1002.85 1003.41 1003.87 1004.48 1005.02 1005.54 1005.85 1006.46 1007.31 1008.09 1009.11 1009.65 1010.61 1011.12 1011.98 1012.21 1012.68 1013.24 1013.60 1014.32 1015.01 1015.26 1015.54 1015.93 1016.20 1016.32
1002.13 1001.58 1000.82 1000.00 999.09 998.43 998.05 997.70 997.94 998.16 998.62 999.25 999.90 1000.47 1001.03 1001.40 1001.73 1002.18 1002.64 1003.18 1004.03 1004.62 1005.11 1005.72 1005.86 1006.60 1007.77 1008.47 1009.19 1010.07 1010.78 1011.10 1011.74 1012.32 1012.59 1013.08 1014.02 1014.64 1015.01 1015.34 1015.51 1015.91 1016.17
1002.93 1002.29 1001.74 1001.14 999.97 998.97 998.07 997.75 997.68 997.83 998.14 998.61 999.24 999.90 1000.48 1000.98 1001.36 1001.75 1002.24 1002.81 1003.43 1004.31 1004.92 1005.42 1005.91 1006.25 1007.06 1007.77 1008.75 1009.67 1010.70 1011.16 1011.40 1011.92 1012.31 1012.62 1013.69 1014.37 1014.62 1015.03 1015.41 1015.76 1016.09
1004.32 1003.66 1003.20 1002.54 1001.35 1000.15 999.03 998.13 997.82 997.90 998.09 998.45 998.97 999.65 1000.12 1000.51 1000.92 1001.47 1002.04 1002.40 1002.87 1003.39 1004.14 1004.86 1005.35 1005.44 1006.25 1006.71 1007.01 1007.61 1009.30 1010.68 1011.29 1011.73 1012.37 1012.74 1013.61 1014.42 1014.75 1015.06 1015.38 1015.83 1016.05
Wind_Speed
14 13 11 9 9 8 7 7 6 5 6 5 5 6 7 7 6 6 6 6 6 6 4 4 4 4 3 2 2 2 2 2 3 3 3 2 3 4 6 5 5 5 5
15 13 12 9 9 9 10 9 6 7 6 6 5 7 7 7 7 7 8 7 7 7 6 6 5 3 4 2 2 3 3 2 3 3 2 3 2 2 4 4 4 4 5
14 13 12 10 11 13 13 11 7 7 7 6 6 7 8 8 8 7 7 7 7 7 7 7 7 6 4 2 2 3 2 2 2 1 3 2 3 2 4 3 4 5 3
15 14 14 13 14 13 12 10 7 7 7 7 7 8 8 8 9 8 7 7 7 7 7 7 7 7 8 7 5 5 3 3 2 1 2 2 2 3 1 2 5 2 5
16 15 15 13 12 11 10 11 8 7 7 7 8 8 8 9 8 8 8 7 7 6 6 6 6 7 10 9 5 5 5 3 3 1 1 1 2 2 2 2 3 4 5
17 17 15 12 11 12 12 11 8 7 7 8 9 10 9 8 12 15 11 8 7 7 8 6 6 10 9 11 10 10 9 6 4 3 2 3 3 3 2 2 2 3 5
17 17 15 13 13 13 12 10 11 10 6 10 11 10 11 10 15 16 15 8 8 8 7 7 4 4 8 6 8 7 6 9 9 5 4 5 3 5 3 2 3 3 4
17 16 15 14 14 13 11 13 12 8 10 9 11 11 10 8 15 16 18 10 8 8 8 8 8 8 8 8 6 5 5 5 5 4 6 6 7 5 5 3 2 4 5
17 17 16 15 15 14 14 14 12 9 10 9 8 11 11 9 16 19 16 9 7 7 7 9 9 8 8 8 6 6 5 5 4 7 8 11 11 11 9 3 3 0 4
17 17 15 15 16 15 15 14 12 9 11 7 9 11 12 11 16 19 17 7 8 6 7 7 14 10 13 12 7 6 5 6 3 3 3 3 4 3 2 6 3 3 2
17 16 16 16 16 16 14 11 10 10 10 9 10 10 12 13 11 19 20 11 10 8 8 5 5 12 15 14 11 7 7 4 3 3 4 4 3 3 2 2 4 4 3
15 15 15 15 13 12 14 11 10 11 11 11 10 9 8 8 10 16 19 16 13 10 10 7 8 17 16 13 10 9 8 5 1 2 2 2 2 3 3 5 4 4 4
13 15 15 14 13 13 12 12 9 10 10 10 10 10 8 5 5 10 17 15 14 9 8 12 15 18 16 13 14 12 8 4 3 2 2 3 3 3 5 4 3 1 2
13 13 11 12 12 11 10 9 10 11 11 10 10 9 8 6 7 6 8 9 8 7 9 9 11 12 14 7 6 7 5 5 4 4 3 2 3 2 2 2 2 4 3
12 11 11 10 11 11 11 11 12 14 13 11 11 10 10 8 12 16 15 13 12 12 7 4 4 4 4 3 3 3 3 4 4 3 3 2 2 1 2 1 1 2 1
11 9 11 10 9 9 10 10 0 4 10 16 13 12 8 11 14 19 22 18 19 23 8 4 4 2 7 7 7 5 4 7 4 4 3 2 3 2 2 2 1 1 1
12 10 7 8 8 9 10 11 11 1 2 6 11 14 15 14 18 21 16 19 18 17 9 9 11 9 7 5 5 4 3 4 4 4 4 4 3 0 1 1 1 1 1
8 9 7 8 9 8 9 10 9 9 6 5 1 8 14 20 19 17 16 15 6 7 7 7 8 10 8 9 9 6 5 3 3 3 3 4 3 1 0 1 2 1 1
5 5 6 6 6 9 8 7 8 7 5 4 3 2 10 14 13 14 23 8 10 11 10 9 9 7 8 7 5 4 6 6 5 5 4 4 4 2 1 1 3 3 2
5 8 5 4 4 5 5 6 6 6 6 6 7 7 6 6 5 7 10 9 7 8 10 8 8 7 7 7 7 6 5 5 5 5 4 3 2 3 3 2 4 1 1
8 5 5 4 4 5 4 6 6 6 7 7 8 8 16 11 10 11 10 10 9 10 10 9 8 7 4 5 6 8 7 6 5 5 5 4 4 3 3 3 3 1 2
9 8 6 4 4 4 5 6 6 7 7 8 6 3 11 7 7 8 8 9 9 8 8 10 9 8 7 9 6 6 9 8 6 5 5 5 4 4 3 3 3 0 2
10 10 10 8 4 5 4 5 6 8 7 8 6 6 8 9 7 8 9 9 8 8 8 8 9 7 7 7 7 8 9 8 7 7 7 6 5 5 4 4 4 1 1
11 11 11 9 8 7 6 7 8 9 8 7 7 7 8 8 8 9 9 8 7 7 8 8 8 11 9 8 7 6 5 6 7 7 10 7 6 6 4 3 4 2 1
11 11 12 12 10 9 6 5 5 7 8 8 8 7 7 7 7 8 7 7 8 8 8 7 7 11 13 14 11 10 9 11 10 9 6 8 8 8 5 5 4 2 1
12 12 11 11 12 13 11 5 4 5 7 6 5 5 6 7 7 7 7 9 9 10 10 8 11 15 16 15 17 20 17 13 11 11 7 7 7 5 4 6 7 3 3
Wind_Direction
196 196 198 198 202 208 216 222 204 193 201 214 215 190 182 180 179 176 170 166 165 170 156 168 155 146 141 114 109 103 95 112 175 298 260 273 290 337 339 339 331 313 312
194 194 198 193 203 213 221 229 203 209 210 211 205 192 184 186 185 180 181 177 171 180 176 167 169 145 128 142 126 123 123 134 146 250 300 308 289 327 307 307 317 317 323
189 191 196 195 201 219 226 227 204 201 208 204 194 192 192 193 194 194 188 179 180 181 175 177 181 159 155 177 162 142 152 124 129 154 284 306 289 338 328 316 302 316 303
188 193 196 198 207 216 224 227 209 196 198 203 201 202 200 202 198 196 185 187 187 185 179 182 184 182 172 176 170 166 158 143 129 166 255 282 272 291 270 292 330 318 313
189 195 202 204 208 212 218 224 220 198 201 201 211 212 200 200 200 192 190 183 181 183 173 181 189 196 185 181 156 181 165 160 188 183 234 260 274 305 278 272 264 286 291
189 197 199 198 198 207 216 224 217 208 196 195 211 222 212 211 196 193 180 182 180 173 182 182 193 197 187 189 188 176 181 180 199 173 189 217 250 235 261 254 253 351 328
189 196 196 194 200 208 212 217 220 218 198 206 215 219 224 211 194 188 180 183 180 188 172 175 181 198 188 197 209 205 233 229 219 184 202 206 242 215 206 273 251 236 244
192 193 195 194 202 208 206 216 223 210 219 208 219 219 223 213 187 187 184 189 185 187 178 175 181 185 193 191 196 238 242 252 246 211 211 228 228 235 210 198 240 257 275
193 194 194 193 199 204 208 216 221 211 225 213 214 214 215 218 182 192 181 187 184 188 174 187 178 192 200 184 180 225 250 263 243 253 256 262 264 261 238 156 263 7 294
195 197 193 194 200 205 211 215 216 215 224 214 217 211 211 216 188 192 187 180 190 180 185 196 182 178 174 190 185 209 246 253 239 306 310 311 304 308 70 184 168 239 250
195 192 194 196 199 206 212 211 210 209 220 221 218 209 212 210 195 192 188 188 192 188 191 185 187 181 183 191 176 185 208 196 239 302 317 327 335 336 303 226 204 193 209
191 192 195 198 203 204 208 210 210 206 212 221 222 226 219 209 184 198 191 197 187 180 190 186 177 178 195 189 181 205 204 207 182 285 325 312 311 306 306 311 281 249 224
188 195 198 198 203 207 202 209 208 208 214 222 225 231 223 172 178 193 190 198 181 183 180 187 178 182 184 188 201 196 184 181 203 239 258 263 242 267 292 305 325 18 149
193 198 198 201 204 206 209 208 210 214 218 225 223 226 222 169 167 191 199 195 174 186 176 173 177 186 190 191 185 189 176 175 197 221 220 241 285 315 326 1 324 346 15
194 198 198 200 199 206 214 212 217 224 214 217 222 217 208 184 201 189 183 185 187 188 137 125 159 155 143 197 268 246 166 175 198 204 207 223 273 302 301 319 41 17 49
198 199 200 199 200 208 213 224 187 267 232 225 221 213 216 195 176 190 189 190 171 151 151 156 150 182 177 191 213 217 197 208 202 208 188 182 234 230 310 357 54 111 283
204 206 209 210 208 203 209 219 232 123 81 237 223 211 187 174 187 192 184 174 173 157 197 170 159 176 186 168 229 219 195 224 168 185 168 204 216 35 64 344 223 205 285
225 214 203 205 212 211 211 218 225 232 221 208 149 220 198 186 193 169 134 113 129 236 217 177 181 183 194 177 175 180 184 170 192 167 190 204 153 143 26 275 207 194 285
252 231 214 216 206 214 214 211 217 217 191 156 130 101 83 72 94 133 154 172 181 197 204 175 194 183 190 193 169 169 161 162 167 169 204 183 150 152 186 238 216 208 266
318 260 231 223 210 204 207 205 204 197 182 165 187 197 134 118 159 171 191 196 182 185 188 181 178 182 204 183 162 159 144 153 160 183 183 160 157 144 177 207 198 163 287
314 320 258 222 218 214 195 203 199 189 185 188 208 188 183 183 184 182 187 192 187 183 187 180 170 172 164 156 170 150 158 168 167 181 166 153 151 162 185 194 154 171 284
335 331 325 280 240 215 210 204 188 200 190 198 201 118 159 197 184 184 183 184 189 187 177 177 168 177 172 158 172 173 156 174 168 168 159 146 163 147 152 160 142 47 333
358 345 335 323 295 250 205 190 184 195 189 197 169 158 180 198 185 177 179 187 177 178 174 174 166 155 153 160 159 170 163 176 181 164 149 152 148 147 163 156 148 165 340
358 349 343 333 322 289 240 204 203 195 182 181 177 183 187 191 186 184 184 177 171 177 171 172 167 158 152 149 149 155 150 151 163 165 153 150 137 147 150 138 159 176 281
9 5 359 343 341 328 282 245 211 194 185 180 189 179 176 179 179 176 175 169 162 167 169 171 169 149 154 154 147 149 163 165 160 156 155 131 140 154 151 140 133 133 119
10 8 2 354 355 348 341 296 220 185 189 181 171 167 173 172 171 163 168 168 171 169 164 166 167 159 166 171 163 158 160 166 154 153 143 131 132 136 135 131 137 118 109